Weather History for Malmstrom AFB, MT

Change the Weather History Date:

Thursday, September 5, 2013

  Actual Average (KGTF) Record (KGTF)
Temperature  
Mean Temperature 76 °F 60 °F  
Max Temperature 91 °F 75 °F 98 °F (1967)
Min Temperature 61 °F 45 °F 31 °F (1956)
Degree Days  
Heating Degree Days 0 6  
Month to date heating degree days 28  
Since 1 July heating degree days 149  
Cooling Degree Days 11 1  
Month to date cooling degree days 7  
Year to date cooling degree days 283  
Growing Degree Days 26 (Base 50)    
Moisture  
Dew Point 51 °F    
Average Humidity 49    
Maximum Humidity 75    
Minimum Humidity 23    
Precipitation  
Precipitation 0.00 in 0.05 in 0.81 in (2010)
Month to date precipitation 0.27  
Year to date precipitation 11.60  
Snow  
Snow 0.00 in 0.00 in T in (1986)
Month to date snowfall 0.1  
Since 1 July snowfall 0.4  
Since 1 September snowfall 0.1  
Snow Depth -    
Sea Level Pressure  
Sea Level Pressure 30.01 in    
Wind  
Wind Speed 5 mph (SW)    
Max Wind Speed 33 mph    
Max Gust Speed 55 mph    
Visibility 10 miles    
Events Rain    
T = Trace of Precipitation, MM = Missing Value Source: NWS Daily Summary

Daily Weather History Graph

Daily Weather History Graph

Search for Another Location

Airport:

Trip Planner

Search our weather history database for the weather conditions in past years. The results will help you decide how hot, cold, wet, or windy it might be!

Date:

Astronomy

Sep. 05, 2013 Rise Set
Actual Time 6:49 AM MDT 7:56 PM MDT
Civil Twilight 6:17 AM MDT 8:27 PM MDT
Nautical Twilight 5:39 AM MDT 9:05 PM MDT
Astronomical Twilight 4:59 AM MDT 9:45 PM MDT
Moon 7:09 AM MDT (9/5) 7:43 PM MDT (9/5)
Length of Visible Light 14h 10m
Length of Day
13h 07m
Waxing Crescent, 0% of the Moon is Illuminated
Sep 5
Waxing Crescent
Sep 12
First Quarter
Sep 19
Full
Sep 26
Last Quarter
Oct 4
New

Hourly Weather History & Observations

Time (MDT) Temp. Heat Index Dew Point Humidity Pressure Visibility Wind Dir Wind Speed Gust Speed Precip Events Conditions
12:56 AM 71.1 °F - 48.9 °F 45% 30.04 in 10.0 mi NE 5.8 mph - N/A   Clear
1:56 AM 66.0 °F - 48.9 °F 54% 30.04 in 10.0 mi Calm Calm - N/A   Clear
2:56 AM 62.1 °F - 48.0 °F 60% 30.04 in 10.0 mi SE 5.8 mph - N/A   Clear
3:56 AM 62.1 °F - 48.0 °F 60% 30.03 in 10.0 mi Calm Calm - N/A   Clear
4:56 AM 66.9 °F - 48.9 °F 52% 30.02 in 10.0 mi SW 3.5 mph - N/A   Clear
5:56 AM 64.0 °F - 48.9 °F 58% 30.02 in 10.0 mi SW 3.5 mph - N/A   Clear
6:56 AM 61.0 °F - 48.0 °F 62% 30.04 in 10.0 mi Calm Calm - N/A   Clear
7:56 AM 64.9 °F - 50.0 °F 58% 30.06 in 10.0 mi Calm Calm - N/A   Clear
8:56 AM 66.9 °F - 50.0 °F 54% 30.06 in 10.0 mi SW 4.6 mph - N/A   Clear
9:56 AM 73.0 °F - 48.9 °F 42% 30.04 in 10.0 mi Calm Calm - N/A   Clear
10:56 AM 79.0 °F - 48.9 °F 35% 30.02 in 10.0 mi Calm Calm - N/A   Clear
11:56 AM 82.9 °F - 48.9 °F 31% 29.99 in 10.0 mi Calm Calm - N/A   Clear
12:56 PM 88.0 °F - 50.0 °F 27% 29.95 in 10.0 mi North 3.5 mph - N/A   Clear
1:56 PM 91.0 °F - 48.0 °F 23% 29.94 in 10.0 mi Variable 5.8 mph - N/A   Clear
2:56 PM 91.0 °F - 48.9 °F 23% 29.93 in 10.0 mi North 6.9 mph - N/A   Clear
3:56 PM 91.0 °F - 48.0 °F 23% 29.92 in 10.0 mi Variable 3.5 mph - N/A   Clear
4:30 PM 82.4 °F 81.4 °F 53.6 °F 37% 29.98 in 8.0 mi SSW 33.4 mph 55.2 mph 0.00 in Rain Light Rain
4:56 PM 75.9 °F - 57.9 °F 54% 30.00 in 10.0 mi SW 18.4 mph 25.3 mph 0.00 in   Mostly Cloudy
5:56 PM 77.0 °F - 55.9 °F 48% 29.99 in 10.0 mi SW 11.5 mph - N/A   Mostly Cloudy
6:56 PM 75.0 °F - 55.9 °F 51% 30.00 in 10.0 mi WNW 6.9 mph - N/A   Clear
7:56 PM 73.9 °F - 57.0 °F 55% 30.00 in 10.0 mi West 4.6 mph - N/A   Clear
8:56 PM 66.9 °F - 55.0 °F 66% 30.04 in 10.0 mi ESE 4.6 mph - N/A   Clear
9:56 PM 69.1 °F - 57.0 °F 65% 30.03 in 10.0 mi Calm Calm - N/A   Clear
10:56 PM 66.0 °F - 57.0 °F 73% 30.01 in 10.0 mi South 5.8 mph - 0.00 in Rain Light Rain
11:56 PM 64.0 °F - 55.9 °F 75% 30.00 in 10.0 mi SSW 6.9 mph - 0.00 in   Clear